Theta_e
316 314 314 317 319 321 322 322 324 325 324 322 322 321 321 321 322 322 323 325 326 326 326 326 326 326 327 327 326 325 323 324 323 320 319 320 318 315 313 311 310 311 310 311 314 314 313 310 310 312 314 316 317 318 318 318 318 318 320 320 318 318 318 318 317 315 315 316 313 311 314 317 315 312 312 314 313 314 314 315 316 316 316 316 315 316 315 314
316 314 313 316 318 320 322 322 322 324 325 323 323 322 322 322 322 322 323 325 325 325 325 326 326 326 327 326 325 323 319 320 322 322 320 319 317 315 314 312 310 310 310 311 314 314 312 310 311 314 316 316 317 317 318 317 317 319 320 319 319 320 317 316 317 315 315 316 314 311 313 316 316 313 313 314 314 314 315 315 315 316 317 316 315 316 316 314
316 314 313 315 317 319 321 321 321 322 324 325 323 323 323 323 322 322 323 324 325 325 325 326 326 326 326 325 325 319 312 314 317 322 323 318 316 315 315 314 311 310 310 311 314 314 311 310 312 314 316 316 316 317 317 317 317 318 319 319 320 320 316 313 315 314 313 314 314 312 312 314 314 314 313 315 315 314 315 316 315 316 316 316 316 316 316 314
316 314 313 314 315 318 320 320 321 320 322 324 325 324 324 324 323 323 323 324 324 325 325 326 325 326 325 324 325 318 310 312 315 321 324 318 316 316 316 315 311 311 310 311 314 314 311 310 312 315 317 316 316 316 317 317 317 317 318 319 318 317 316 313 313 313 312 313 313 312 311 313 313 313 314 315 315 314 316 316 315 315 316 316 315 316 316 315
315 313 313 314 314 316 319 320 320 320 320 323 325 325 325 324 323 323 323 324 324 324 325 325 325 325 324 323 325 318 312 316 318 322 323 317 316 315 316 314 311 311 310 312 314 313 310 310 313 316 316 316 316 316 316 315 316 317 315 314 314 314 315 313 311 312 312 312 312 312 312 313 312 312 313 314 315 316 316 315 315 315 315 315 315 315 316 316
315 314 314 315 313 313 316 318 319 320 320 322 325 325 325 325 324 324 324 324 324 325 325 325 325 324 322 324 324 315 314 320 317 319 320 317 317 316 315 313 310 310 310 312 314 312 310 311 314 316 316 315 316 315 315 314 315 317 314 311 311 312 314 312 311 312 312 312 312 312 313 313 313 313 313 314 315 315 314 314 315 315 314 314 314 315 315 316
315 314 314 313 313 314 314 316 317 318 319 321 323 325 325 324 324 324 324 324 324 325 325 325 325 321 320 324 321 311 314 321 315 315 318 317 316 315 314 311 310 311 311 313 313 312 310 311 314 316 315 314 315 314 313 314 314 316 315 311 311 311 312 312 311 312 311 311 312 312 313 312 313 314 312 313 315 315 314 314 314 314 314 314 314 315 314 315
316 314 313 313 314 316 316 316 317 317 319 320 322 324 325 324 324 324 324 324 324 325 325 326 324 319 321 325 318 309 314 320 317 315 316 316 313 312 312 310 310 311 312 314 313 311 310 312 314 315 315 314 314 313 313 314 314 315 314 311 311 310 310 311 311 311 311 311 311 312 313 312 312 312 312 313 314 314 314 314 314 314 314 314 314 314 314 315
316 315 313 313 316 317 316 316 316 317 317 318 320 321 324 324 324 324 324 324 325 326 327 326 322 321 324 322 313 310 315 321 320 316 314 314 311 310 310 310 310 311 313 314 313 312 311 312 314 314 314 313 313 314 313 314 315 314 312 311 311 309 309 310 310 310 310 310 311 312 312 312 311 311 313 314 314 314 314 314 314 314 314 314 314 314 314 314
316 315 314 313 314 315 315 315 315 315 315 316 318 318 321 323 323 324 324 324 326 327 326 324 323 322 319 314 310 311 317 321 320 317 315 313 312 310 310 310 311 312 314 314 312 311 311 312 313 313 313 312 313 313 312 313 314 312 311 311 310 310 309 310 310 309 310 310 310 312 312 311 310 311 314 314 313 314 314 314 314 314 314 314 314 314 314 314
315 316 315 312 313 314 314 315 315 314 315 315 316 316 318 320 322 323 324 325 326 327 323 319 319 317 311 308 309 312 317 319 318 317 315 312 312 311 310 311 312 314 315 314 313 311 311 312 313 313 313 312 312 311 311 312 312 311 312 312 310 311 311 311 311 309 310 311 310 312 312 311 310 311 314 314 313 314 313 314 314 314 314 314 314 314 314 314
316 316 314 311 312 313 314 314 314 315 316 316 316 316 317 318 321 322 324 326 325 323 319 313 311 310 308 308 309 313 317 317 315 314 312 310 311 312 312 314 315 315 315 314 313 311 311 313 313 313 312 313 312 311 312 311 311 311 313 313 311 311 313 311 311 311 311 312 311 312 312 313 313 313 314 314 314 314 313 314 314 314 314 314 314 313 314 315
316 314 313 312 313 313 314 313 314 316 317 316 316 317 317 318 319 320 322 323 322 319 316 311 308 308 308 309 310 313 314 313 313 311 310 309 310 312 314 315 316 314 313 313 312 311 311 313 313 312 312 312 312 312 312 311 311 312 312 313 312 313 313 311 311 311 312 312 311 311 313 315 315 314 314 313 313 314 313 314 313 314 314 314 314 313 314 314
315 313 313 313 313 314 313 313 314 317 317 316 316 316 316 316 317 317 318 319 319 318 314 310 308 307 308 310 311 312 311 310 311 311 312 310 309 312 315 315 315 313 312 312 312 311 311 313 312 312 312 312 312 311 312 311 311 312 312 313 314 314 313 311 310 311 312 312 310 311 313 315 315 313 312 313 313 313 313 314 314 314 314 314 314 314 314 314
314 312 313 314 313 312 312 313 315 316 316 315 315 316 315 315 315 315 316 317 318 316 312 308 307 308 309 309 309 310 311 309 309 312 314 312 311 313 314 314 313 313 313 313 312 311 311 313 312 312 312 311 312 312 313 312 311 312 312 313 314 313 313 312 310 310 312 312 311 311 313 315 315 312 310 311 312 312 312 313 313 314 314 314 314 314 314 314
312 312 314 314 313 312 311 313 315 315 315 314 315 316 316 315 315 315 315 316 315 312 309 307 307 308 309 309 309 310 310 309 309 311 313 313 313 313 314 314 313 314 314 313 313 312 312 313 313 312 311 311 312 313 314 313 313 312 312 314 314 313 313 312 311 309 311 312 311 312 313 314 315 313 311 311 312 312 312 313 313 313 314 314 314 314 314 314
312 312 314 314 313 311 311 312 313 313 313 313 314 315 314 314 314 313 313 312 311 309 307 307 307 308 308 308 310 310 309 309 309 310 311 313 314 314 314 314 314 315 314 314 314 313 313 312 312 311 312 311 312 314 314 313 313 313 313 314 314 312 312 312 312 310 309 312 313 312 312 313 315 314 312 311 312 312 312 313 313 313 313 314 314 314 314 314
312 312 313 314 313 311 311 311 311 311 311 311 312 312 311 311 310 310 309 308 307 307 307 308 307 308 308 308 310 311 310 309 309 309 310 312 314 314 314 315 315 315 314 314 314 313 313 312 312 313 313 312 312 314 313 313 314 313 313 313 313 312 311 312 312 310 310 312 313 313 313 313 314 314 313 312 312 312 312 313 313 314 314 314 314 314 314 315
312 312 313 313 311 311 312 311 310 311 310 310 310 309 308 308 307 307 306 306 307 308 308 309 308 309 309 308 310 311 310 310 309 309 310 312 314 313 314 315 315 315 314 314 314 313 313 313 313 314 314 312 312 313 314 315 315 314 315 315 314 312 311 311 311 309 309 312 313 313 313 314 314 314 314 314 312 311 312 312 313 314 314 315 315 315 315 315
312 312 312 313 311 311 312 311 311 311 309 309 309 308 309 309 309 309 308 307 308 309 309 309 308 309 310 308 310 312 311 311 310 310 312 313 314 314 314 314 314 314 314 315 315 313 313 314 314 314 315 313 313 313 313 314 313 314 315 315 315 314 312 311 310 309 309 312 314 314 314 314 313 314 315 315 313 312 313 313 314 314 314 315 315 316 315 316
312 312 313 313 312 312 311 310 310 310 309 310 308 307 310 310 310 311 310 309 308 309 309 308 308 309 310 308 310 312 311 312 311 311 313 313 314 314 314 313 314 314 312 313 314 313 313 315 316 315 314 313 312 312 312 312 312 313 313 313 314 315 313 311 310 310 308 311 314 313 313 313 314 314 315 315 314 314 315 315 316 315 315 316 316 316 316 316
313 313 313 313 312 312 311 311 310 309 309 309 307 307 308 309 310 309 309 309 308 309 309 308 308 310 310 309 312 312 312 313 313 313 313 313 314 314 313 313 313 314 312 312 313 314 314 315 316 313 310 310 310 310 312 313 312 313 313 313 313 313 312 310 310 310 308 311 315 313 313 315 315 315 315 316 316 315 315 315 316 316 316 316 316 316 316 316
313 313 313 313 312 312 311 310 310 309 309 308 308 308 307 309 311 308 307 310 309 309 309 308 308 311 310 310 313 312 312 313 313 314 313 313 314 313 313 313 313 314 313 312 314 315 315 314 312 309 308 310 310 310 313 313 313 314 314 313 313 314 314 312 311 310 308 309 312 313 314 316 316 316 315 315 314 314 314 314 315 315 315 315 315 316 316 316
313 312 312 312 312 312 310 310 310 309 309 308 308 308 308 310 310 308 308 309 309 309 309 308 309 311 311 311 312 313 312 313 313 314 313 313 313 313 313 313 313 313 312 312 314 315 315 311 306 307 310 312 311 311 313 313 312 314 316 315 316 315 315 314 312 310 309 308 310 313 314 314 317 316 315 314 310 310 311 311 313 314 315 315 315 315 315 315
312 312 312 312 312 311 310 310 310 309 308 307 308 308 309 310 309 308 309 308 309 309 309 309 308 310 311 311 312 313 312 312 313 314 313 313 313 312 313 312 312 313 313 312 313 315 314 307 304 308 311 313 314 312 315 316 313 314 315 316 316 314 314 314 313 312 313 312 311 311 311 313 316 315 315 313 310 311 310 309 312 313 314 314 314 315 315 314
312 312 312 311 311 311 311 311 310 309 308 308 308 308 309 310 308 308 309 308 309 308 308 310 309 309 311 312 312 312 312 312 312 313 313 313 313 312 312 311 311 312 312 312 312 313 310 305 307 312 313 315 315 312 316 318 313 313 315 315 315 315 316 316 315 315 314 312 310 310 312 312 314 316 316 313 312 314 313 311 312 312 313 313 313 313 313 314
313 312 312 311 311 311 311 311 309 308 309 309 307 308 309 309 307 308 309 308 309 309 308 309 309 310 311 312 313 311 312 312 312 313 313 313 312 312 313 311 310 310 309 311 313 312 308 306 309 314 315 315 314 313 316 316 313 315 315 313 315 316 319 319 317 315 313 312 311 311 313 312 312 316 316 311 312 315 315 315 314 311 311 312 312 312 312 313
314 312 312 311 311 311 310 310 308 308 309 308 307 309 310 308 307 308 309 308 309 309 308 308 309 310 311 312 312 311 312 312 313 314 313 313 312 312 312 311 311 311 308 310 314 311 309 311 312 314 314 314 315 316 316 316 316 315 310 311 315 316 318 318 315 313 312 311 312 313 314 312 312 315 314 311 312 314 315 316 316 312 311 312 312 313 313 313
314 312 312 311 311 310 310 309 308 308 308 307 307 309 309 308 308 308 309 309 309 308 307 308 309 310 311 311 311 311 312 312 313 313 313 313 312 311 312 311 311 311 309 312 314 312 311 311 310 312 314 314 315 313 313 318 317 312 308 311 314 315 315 315 314 313 311 312 314 314 312 311 312 315 314 311 312 314 316 316 315 312 312 313 314 314 313 313
314 313 312 311 311 310 310 310 308 308 308 307 308 309 308 308 308 308 307 309 310 308 306 307 309 311 312 311 310 310 311 311 312 312 312 312 311 311 310 310 310 312 312 314 314 312 310 309 309 311 312 311 310 307 308 314 313 310 312 314 314 314 314 313 313 311 311 313 313 310 309 310 311 314 316 314 313 314 315 314 313 313 312 313 314 314 313 313
315 314 313 311 311 310 310 310 309 308 307 307 309 309 308 309 309 308 307 310 311 308 306 307 309 311 312 311 310 310 311 311 311 312 311 311 311 310 310 311 311 313 314 314 314 312 310 310 311 310 308 308 310 309 307 308 309 311 315 315 314 314 313 313 312 312 313 314 310 306 307 309 310 313 315 313 312 312 313 313 313 314 313 313 314 314 312 312
315 315 314 313 311 310 309 309 309 308 307 308 309 308 307 309 309 309 308 308 309 309 308 309 308 310 312 312 312 311 312 312 312 312 312 312 311 311 312 313 312 313 312 312 314 314 313 313 311 309 307 308 313 313 308 308 310 312 314 313 313 314 313 313 313 313 313 312 307 305 307 309 311 313 313 312 312 312 311 310 312 312 312 312 314 314 313 313
315 315 315 314 313 311 310 309 309 308 307 308 309 307 308 309 309 310 308 307 309 309 309 310 308 310 312 311 312 312 313 313 311 312 312 313 312 312 314 314 314 316 315 313 315 314 314 314 312 312 310 309 314 314 311 311 311 312 315 313 313 314 313 314 313 312 312 311 306 305 308 310 312 313 313 313 313 312 309 309 310 310 310 311 313 314 314 314
315 315 315 314 314 312 310 309 309 308 307 309 309 307 309 310 310 311 308 307 309 307 308 310 310 311 312 311 312 312 312 312 311 312 312 312 312 312 313 313 314 317 315 313 314 314 315 314 313 314 312 310 313 314 314 314 312 314 317 315 314 315 315 314 313 313 313 311 307 306 308 313 313 312 313 312 310 309 309 309 310 310 311 311 313 314 315 316
316 315 315 314 314 312 310 310 309 307 308 309 308 308 310 310 310 311 308 308 309 308 308 310 311 312 312 311 312 312 312 312 312 312 312 312 312 313 313 311 312 315 314 313 313 313 314 313 311 310 308 310 313 312 313 314 313 312 312 313 313 315 315 311 308 310 311 310 309 308 310 313 314 312 313 312 309 309 309 309 309 310 311 311 313 314 315 316
315 315 315 314 314 313 311 310 308 308 309 309 308 309 310 311 311 311 309 309 309 309 309 311 311 313 311 310 311 311 311 313 312 312 312 313 313 313 314 313 313 313 314 314 314 312 312 312 311 310 308 309 311 310 310 312 313 312 310 311 311 313 316 311 306 305 307 310 312 311 312 313 312 312 314 313 312 311 309 309 308 310 311 311 313 315 315 316
314 314 315 314 314 313 312 310 309 308 309 309 308 310 310 310 311 311 310 309 309 309 310 311 311 312 312 311 312 312 312 313 312 312 313 312 313 313 313 313 312 312 313 314 315 315 314 312 311 312 312 309 307 307 308 308 310 312 312 312 310 310 314 313 310 309 308 310 312 310 311 312 310 312 315 313 312 312 311 310 309 309 310 311 313 316 315 316
314 314 314 314 314 313 312 311 309 309 310 309 309 310 311 310 310 309 309 309 310 310 311 311 311 312 312 311 312 311 312 313 312 313 313 312 312 313 313 313 312 311 311 312 313 316 316 313 311 311 313 311 308 310 311 308 307 310 311 311 311 312 312 310 311 312 311 311 312 310 308 309 310 312 314 313 312 313 313 312 312 311 310 311 314 316 315 315
313 313 312 314 315 314 313 312 310 309 310 310 309 310 311 310 308 308 308 309 310 310 311 312 311 311 311 312 312 311 311 313 312 312 313 313 312 312 312 313 313 311 309 310 313 315 316 315 313 311 312 312 311 312 314 312 308 307 308 308 311 313 312 311 311 311 311 311 312 311 308 309 311 312 312 312 313 314 313 314 315 313 311 312 315 316 315 315
312 312 311 313 314 314 313 312 310 310 310 310 309 310 312 310 307 306 307 309 310 309 310 313 312 310 311 312 312 311 311 312 312 312 313 312 311 311 311 312 314 311 308 309 313 314 313 314 314 312 311 312 313 313 315 315 311 308 309 309 311 311 310 311 310 308 310 310 310 310 309 310 312 311 311 311 312 313 312 313 315 313 311 313 315 316 316 315
312 312 311 312 314 313 311 311 311 311 311 311 309 312 314 310 307 306 307 308 309 307 309 312 311 312 312 311 311 311 311 311 311 312 312 311 311 311 311 311 312 311 309 310 313 314 313 312 315 313 312 313 313 311 311 314 314 312 310 311 313 312 311 312 311 308 308 308 309 309 309 312 314 312 311 311 312 311 309 310 312 311 311 313 315 316 316 315
312 312 311 312 313 312 310 311 311 310 311 310 309 310 310 308 308 308 307 308 309 308 309 311 312 313 312 311 311 312 311 311 312 312 312 311 312 312 310 309 310 310 310 312 314 313 312 314 315 313 313 313 312 307 304 307 313 313 311 312 314 313 312 313 314 311 307 305 306 307 308 313 315 311 308 309 308 306 304 305 307 310 311 312 313 315 316 315
312 311 311 312 313 311 311 311 311 310 310 310 309 308 308 308 310 309 308 309 310 310 310 311 312 311 311 312 312 312 312 312 312 312 313 313 312 310 309 308 309 310 311 312 314 312 312 316 316 312 311 312 310 308 306 307 311 311 312 313 313 314 315 313 312 312 309 307 308 308 309 313 314 308 305 304 303 303 303 304 306 308 311 311 311 313 314 315
311 310 310 311 311 311 311 311 310 310 310 309 309 309 308 308 309 308 309 311 311 311 312 313 311 309 312 313 311 311 312 312 312 312 313 313 311 308 307 308 310 311 311 311 313 312 312 316 316 313 313 313 312 312 311 311 311 311 313 312 311 314 314 310 309 310 310 311 311 311 312 312 312 310 308 307 306 307 306 306 307 307 309 311 311 311 313 314
310 309 309 310 310 310 311 311 311 310 310 310 311 310 310 309 308 307 309 311 311 311 311 311 309 310 313 313 311 312 313 313 314 312 311 313 310 306 306 308 310 311 310 311 311 311 314 316 315 314 314 314 314 315 315 314 313 312 314 313 311 312 312 311 310 310 311 312 311 311 312 311 309 310 311 312 313 313 310 309 309 309 310 312 312 312 313 313
309 309 310 310 310 310 311 310 310 310 310 310 310 310 310 311 308 306 308 310 310 310 310 310 309 311 312 312 311 312 312 313 314 313 311 312 311 307 305 307 309 310 310 310 310 312 317 317 313 313 314 314 314 315 316 318 316 315 316 315 313 312 312 314 313 311 312 312 310 312 314 313 310 310 311 313 314 314 313 311 310 311 312 314 313 313 313 311
307 308 309 309 310 310 310 310 310 311 310 310 310 310 310 310 310 308 308 309 309 310 311 311 311 311 311 311 312 312 312 312 312 313 312 311 311 308 305 306 308 308 309 309 309 313 316 314 312 314 314 314 315 317 318 318 317 316 316 315 313 312 312 314 314 313 314 312 310 313 314 313 313 311 312 314 314 314 314 312 311 312 313 314 314 313 313 311
306 307 307 308 309 309 309 310 310 311 311 310 310 311 310 309 310 310 309 309 308 310 311 312 312 311 311 312 312 312 312 312 311 312 313 312 311 309 307 307 307 307 308 309 309 312 314 312 313 314 314 314 318 319 318 317 316 316 317 315 314 312 312 313 314 315 315 313 313 314 314 314 313 311 312 314 314 313 314 312 311 312 314 315 314 314 314 312
303 304 305 307 308 307 309 310 310 311 311 310 310 310 310 310 310 310 310 310 310 311 312 312 312 312 312 312 312 312 313 312 311 312 312 311 312 311 310 310 308 307 309 310 309 310 312 313 314 313 312 314 317 317 317 316 316 316 317 316 313 312 312 313 314 315 315 314 314 315 315 315 314 312 312 313 312 311 311 310 311 312 314 315 315 315 315 313
302 303 305 306 306 306 308 310 310 310 310 310 310 310 310 310 310 310 310 311 313 313 312 312 312 312 312 312 311 312 313 312 313 313 311 311 312 312 311 311 310 308 309 310 310 308 309 314 315 312 311 312 314 315 314 314 315 315 316 315 313 312 313 313 313 314 314 314 314 314 315 315 314 313 312 311 310 309 309 310 311 312 314 314 315 315 316 315
302 303 304 305 306 306 308 310 310 310 310 310 310 310 309 310 309 309 310 310 311 313 313 313 313 312 311 312 312 312 312 312 313 313 311 311 312 311 312 312 311 311 310 310 311 310 309 312 313 311 311 312 312 312 312 312 312 312 313 313 312 312 312 312 313 314 314 314 314 314 314 314 314 313 311 310 309 309 310 310 311 312 313 314 315 315 315 316
302 303 303 305 306 306 308 310 310 310 310 309 310 310 310 310 309 309 310 309 308 310 312 313 313 311 310 311 312 311 310 311 311 310 309 310 311 310 311 310 310 311 310 310 311 311 310 311 311 311 312 312 311 310 311 312 311 311 312 312 312 312 312 312 313 313 314 314 314 314 314 313 313 312 310 310 310 310 310 310 311 312 313 313 314 315 315 316
Wind_Speed
38 43 47 48 49 49 47 45 43 45 48 48 47 45 45 45 44 44 43 42 38 31 28 26 23 21 19 16 15 14 11 11 14 16 15 12 14 15 11 8 5 6 7 10 10 10 9 9 9 10 10 12 9 10 12 8 10 8 3 3 3 3 3 5 7 5 1 5 9 13 18 11 8 11 9 8 9 6 9 13 10 12 12 7 8 6 10 18
38 42 46 47 49 50 47 46 44 44 46 47 47 45 45 45 45 45 44 42 38 32 28 26 23 21 19 15 15 12 8 10 13 17 17 13 14 14 12 10 5 5 7 10 11 10 10 10 11 11 11 11 7 10 10 7 10 4 1 3 4 3 2 3 7 6 0 5 11 13 17 11 8 14 11 8 8 8 7 11 11 10 13 11 9 7 9 18
39 41 45 47 48 49 48 46 45 45 45 46 47 45 45 45 46 45 43 42 38 32 29 27 24 22 19 16 14 9 6 8 10 15 16 14 17 16 15 12 8 7 8 11 12 10 10 10 11 12 12 10 6 10 8 6 8 2 3 4 3 4 2 3 7 7 2 6 12 12 15 9 7 14 12 7 6 8 8 10 11 12 15 15 12 8 9 17
39 41 44 45 46 48 48 47 45 45 45 46 47 46 46 45 45 45 43 42 39 34 31 28 25 24 20 16 15 9 6 6 10 15 13 14 21 19 16 15 12 10 9 12 12 10 10 10 12 13 12 8 5 9 7 6 7 3 4 2 3 5 3 5 8 8 5 6 10 12 13 8 9 15 12 8 6 7 11 13 14 13 16 18 16 12 11 16
40 42 43 43 45 47 48 47 45 44 44 45 46 46 46 45 45 44 43 42 40 36 32 29 26 24 19 16 15 11 7 3 10 17 12 16 24 22 18 17 16 12 12 14 12 12 11 11 13 13 10 5 5 6 5 7 6 3 1 3 3 5 3 6 9 9 7 6 10 13 11 9 11 12 12 11 8 4 8 14 17 15 14 15 17 16 13 15
40 41 42 41 42 45 47 46 44 44 43 44 45 46 46 45 44 44 43 41 39 36 32 29 26 23 18 16 16 14 11 4 6 13 15 20 24 25 23 19 18 15 15 16 13 12 11 12 13 12 7 3 5 4 4 9 6 3 1 2 3 4 4 9 10 9 9 8 11 12 10 11 12 8 11 15 10 4 3 8 13 15 15 13 15 18 16 15
38 39 40 39 39 41 44 44 43 43 43 43 44 46 46 45 44 43 42 40 38 36 31 27 25 24 20 18 17 16 16 13 7 13 19 21 20 23 24 21 19 16 16 18 16 14 13 15 15 13 7 3 5 4 4 10 5 2 2 2 4 5 5 10 10 8 10 9 11 13 10 11 10 6 10 16 16 11 5 4 7 10 14 14 14 17 16 15
36 37 38 40 40 40 41 42 41 41 42 43 43 46 47 46 44 42 41 39 38 33 27 27 26 23 21 22 20 15 19 21 13 12 16 14 14 19 22 21 20 17 18 18 17 15 15 17 17 14 8 3 5 5 7 8 3 2 3 4 4 5 6 8 9 9 10 9 11 13 8 7 10 5 6 14 17 18 13 7 7 7 10 13 15 16 16 16
36 35 37 41 44 42 41 40 39 39 40 40 40 44 46 45 43 42 40 38 36 29 25 28 27 22 21 23 20 11 16 21 19 15 11 7 10 16 20 20 20 18 18 18 16 15 16 18 20 16 7 5 6 6 9 7 3 3 5 6 6 5 6 8 7 9 9 9 11 11 5 4 9 5 6 13 14 16 17 15 12 9 8 10 14 16 16 16
37 34 35 39 43 42 39 38 36 36 37 37 37 41 45 44 41 40 39 36 33 27 24 26 26 24 22 23 20 10 14 22 22 19 12 7 7 13 19 19 18 18 17 17 16 16 18 17 20 18 6 6 8 5 8 5 2 9 11 9 8 7 7 6 7 9 9 10 11 9 4 3 6 4 5 9 12 15 17 17 17 16 14 12 12 15 17 17
38 34 34 37 40 41 39 37 35 33 32 33 34 37 40 39 39 38 36 34 30 27 25 24 25 24 23 25 20 12 14 20 19 18 16 11 6 10 17 18 17 18 16 17 17 17 19 14 16 17 5 5 9 5 5 3 5 16 17 11 8 6 7 5 7 9 6 7 9 6 4 3 4 4 4 5 8 13 17 18 17 17 17 16 14 14 16 18
38 35 34 37 40 40 39 37 35 32 31 32 32 32 34 36 36 36 35 33 30 28 26 25 24 24 24 23 21 17 13 13 12 15 20 17 10 8 15 16 15 15 15 16 16 16 17 13 15 15 5 7 9 4 5 7 11 15 11 6 4 3 5 4 3 5 2 4 9 8 3 4 6 8 8 8 8 8 12 16 17 17 16 17 17 17 16 18
37 35 35 38 39 38 37 37 35 33 32 31 29 30 32 34 35 34 34 33 31 30 28 26 24 24 22 18 22 23 16 10 10 13 17 19 14 10 13 15 14 14 14 15 14 15 17 12 14 14 7 8 7 5 8 10 10 9 3 2 4 3 2 2 2 2 2 4 10 7 3 6 9 10 8 10 11 8 8 10 14 16 16 16 17 19 18 18
36 36 37 38 37 36 37 37 36 34 32 30 28 30 32 33 33 33 33 32 31 30 27 25 23 24 20 14 18 23 22 15 11 11 13 16 15 11 14 15 13 13 13 13 13 14 16 12 12 11 7 8 9 10 10 7 4 5 2 1 2 4 4 3 3 1 2 5 8 5 5 4 4 6 9 12 13 10 9 9 11 12 14 17 18 19 20 19
36 37 39 37 34 34 37 37 37 35 33 30 27 29 31 31 31 31 31 30 29 27 25 24 24 22 16 14 12 15 23 22 15 12 10 12 14 13 14 14 13 12 11 12 12 13 15 13 11 8 6 10 13 11 6 3 1 1 3 4 2 3 3 3 2 2 1 4 6 5 5 5 1 3 6 11 12 12 11 11 12 13 14 16 18 20 21 20
36 39 40 36 32 33 37 39 38 35 32 29 28 28 30 29 29 29 28 28 26 25 25 24 26 22 10 11 12 12 21 25 21 15 10 10 13 13 14 14 12 12 12 11 11 13 15 12 10 9 9 9 8 6 5 4 3 1 2 4 3 4 3 3 2 3 3 2 5 4 3 3 1 1 4 7 9 10 11 11 13 15 15 16 18 19 20 21
35 39 38 35 33 32 36 39 38 35 31 30 30 29 29 28 29 29 27 26 24 24 24 23 26 19 8 9 12 14 21 25 24 20 13 10 12 13 14 14 13 13 13 12 12 13 14 12 10 8 6 4 2 4 7 5 5 3 1 1 1 3 3 3 3 1 2 2 5 5 4 6 1 1 3 6 7 5 7 8 10 13 15 16 17 18 20 20
36 38 37 35 32 33 35 35 36 34 30 30 29 29 29 27 28 28 27 26 25 23 20 21 23 13 9 12 12 15 20 21 23 22 16 13 13 14 13 14 14 14 13 12 11 11 10 8 6 4 3 3 3 6 7 5 7 8 6 3 2 3 3 2 2 1 1 3 5 6 7 11 7 4 5 7 7 7 9 10 11 12 14 16 18 19 20 21
37 36 37 33 31 36 35 33 34 32 31 31 29 29 28 26 26 25 29 31 26 18 9 19 26 7 3 15 16 15 18 18 20 20 17 16 16 15 13 13 15 16 14 9 8 8 7 5 3 4 5 6 7 9 6 2 6 9 6 3 3 4 3 0 2 1 1 4 7 9 9 10 10 9 9 9 11 12 14 16 18 18 17 17 18 20 20 21
37 36 36 31 32 36 33 34 33 31 34 33 34 35 27 25 19 14 27 31 25 13 2 20 34 7 2 19 22 17 17 17 19 20 18 18 18 17 14 14 15 14 10 5 5 6 5 4 5 6 7 8 9 5 1 3 3 5 4 2 2 4 3 2 3 2 1 4 6 7 8 10 10 11 12 12 11 12 15 17 21 23 22 21 20 21 22 21
38 37 35 30 32 33 33 35 30 33 37 35 43 36 25 30 17 14 28 21 16 12 3 22 36 10 2 20 25 21 20 16 17 21 19 20 21 17 14 14 12 7 3 3 5 4 4 6 7 5 4 5 5 3 5 4 4 4 4 4 2 2 1 2 1 2 1 4 3 1 6 12 12 11 13 13 11 12 15 16 19 23 23 24 23 23 24 23
38 37 35 31 32 32 34 33 29 36 37 38 44 28 26 35 20 27 33 13 11 13 8 26 32 12 5 18 23 23 20 12 14 22 21 23 23 15 13 12 8 5 3 4 5 3 5 8 4 5 5 7 5 3 4 4 4 4 3 4 3 2 2 2 1 2 1 3 1 1 4 10 11 10 11 13 13 14 18 20 20 21 22 23 24 24 25 25
39 37 35 33 32 32 34 31 31 38 38 41 38 21 27 29 17 32 30 10 11 10 12 31 29 15 11 17 21 21 17 11 13 22 24 25 23 16 15 12 5 5 4 6 7 6 6 5 3 7 9 10 5 2 5 5 3 2 2 4 3 2 2 1 3 2 1 1 1 1 5 9 9 9 10 12 14 16 21 24 24 24 24 25 25 25 25 26
39 38 36 34 33 32 31 31 33 36 39 41 30 21 29 24 21 34 21 8 7 3 10 26 23 17 16 16 21 19 14 13 16 23 27 27 22 15 14 11 6 6 5 6 7 5 3 1 3 7 7 9 7 4 6 5 3 1 2 4 2 4 3 1 3 3 1 1 1 2 6 7 5 6 8 6 7 12 17 20 23 26 27 27 27 28 28 28
40 38 36 36 34 33 32 30 32 34 40 39 25 24 30 25 29 32 15 7 5 3 7 17 17 15 15 14 19 19 13 13 17 25 29 27 23 15 10 10 7 6 6 6 5 4 1 1 5 7 4 5 7 5 6 5 4 2 4 3 1 5 6 4 5 4 2 3 1 2 6 5 1 3 6 1 1 6 7 10 18 22 23 24 27 28 28 28
40 38 37 37 35 36 34 29 31 35 40 36 25 28 30 27 32 27 10 4 4 5 5 11 13 14 16 12 16 18 10 8 15 25 30 26 23 16 9 7 2 3 7 6 3 1 2 2 3 5 5 6 5 5 5 4 4 3 2 3 2 5 7 7 7 4 2 2 1 1 5 4 2 2 2 1 4 7 4 6 15 20 19 19 22 23 22 21
38 39 38 38 36 39 35 29 33 38 39 33 27 31 30 29 32 22 8 2 4 8 7 8 10 13 16 13 18 15 5 9 14 20 28 24 21 16 9 6 2 3 6 4 3 1 3 5 2 3 5 5 6 5 5 6 5 2 0 2 5 7 8 8 7 3 1 0 1 0 2 4 5 3 1 2 5 8 6 6 10 13 14 14 16 17 17 16
36 38 39 38 36 39 36 32 38 41 37 31 28 30 30 30 29 16 5 1 4 7 7 8 8 12 16 17 20 10 4 14 11 12 25 22 18 12 6 7 6 5 4 3 6 1 3 5 5 6 5 4 5 1 3 7 3 0 0 1 4 5 5 5 4 2 2 1 4 3 1 4 6 2 1 2 4 6 8 6 4 5 7 9 11 13 14 15
36 36 39 38 36 36 33 30 37 39 33 30 28 28 29 29 22 8 1 2 4 4 5 10 10 11 14 15 15 7 7 10 3 11 23 18 15 9 3 8 9 9 4 1 3 1 1 3 3 4 4 4 2 3 1 2 1 4 5 5 6 5 5 4 2 3 2 3 5 2 1 4 6 3 2 0 3 6 8 5 1 1 3 5 9 11 13 15
37 35 38 38 37 36 30 26 32 33 33 33 30 30 31 25 13 5 3 3 4 4 3 9 10 11 15 12 5 3 4 2 4 15 16 10 11 7 7 12 10 8 4 5 4 2 2 1 1 0 1 3 5 5 3 2 6 11 8 7 8 4 3 2 2 2 2 4 2 2 2 3 4 3 4 3 2 4 5 3 1 1 0 4 7 9 10 14
38 36 37 36 36 37 31 27 31 32 34 34 31 34 29 14 4 4 5 3 4 4 3 5 6 10 18 14 5 4 3 2 6 14 11 6 7 8 9 9 5 5 3 3 4 2 2 2 1 1 3 5 5 6 7 3 6 6 4 6 7 3 1 2 1 1 5 4 1 2 2 3 5 4 2 1 2 3 3 2 1 2 1 4 4 6 7 11
39 35 33 30 30 33 30 29 32 34 34 33 33 33 20 5 2 5 4 4 5 5 5 6 4 8 16 11 5 6 4 3 6 8 7 5 5 7 6 5 6 5 4 5 3 1 2 2 1 1 2 4 3 5 6 2 1 1 4 8 6 3 3 3 3 2 5 3 2 1 1 3 8 7 5 7 7 5 6 7 6 5 4 3 2 3 5 8
41 36 30 25 23 27 27 27 32 35 36 36 33 22 7 3 8 6 4 4 2 2 4 5 3 6 13 11 6 6 3 2 6 5 3 4 5 5 1 2 6 3 3 6 5 3 3 0 1 2 2 5 4 4 5 4 5 5 7 8 6 5 4 5 3 1 3 1 2 1 1 3 7 6 8 11 6 2 6 10 11 10 9 5 3 3 6 8
41 37 31 25 21 23 26 28 32 36 39 38 27 11 4 7 8 5 6 4 0 3 3 6 8 8 10 7 6 8 3 1 5 5 3 4 6 6 4 4 5 0 4 6 5 6 5 2 3 3 2 4 3 1 1 4 5 3 1 2 5 5 4 5 3 2 2 1 2 1 1 4 3 1 3 8 7 6 9 12 13 14 13 9 5 6 7 10
41 36 33 27 23 25 27 29 34 38 42 35 16 6 8 10 7 6 8 5 2 4 3 5 11 11 7 1 1 5 1 1 6 5 6 8 8 9 9 8 5 2 5 6 3 3 3 1 1 1 1 2 2 2 2 4 4 0 1 0 2 2 2 2 1 1 2 1 1 3 3 5 3 5 6 5 5 8 10 12 14 17 17 11 8 9 10 12
44 41 35 30 29 29 28 31 34 39 42 28 8 6 10 8 5 6 7 6 5 8 10 7 7 8 7 2 2 6 2 2 7 5 6 6 6 9 10 8 8 7 7 7 3 2 3 0 2 2 1 1 0 1 1 1 2 2 1 2 2 1 4 4 1 1 1 2 3 3 4 4 3 7 6 1 2 5 6 7 11 15 15 11 10 11 13 15
49 46 40 35 33 31 30 32 34 39 38 19 6 9 10 6 3 4 5 8 10 13 13 8 5 5 8 6 6 9 4 3 6 5 5 5 4 9 9 5 10 12 8 5 2 2 4 3 2 1 2 2 2 1 3 4 2 2 3 4 3 1 1 2 1 1 1 3 2 2 5 5 2 4 2 1 4 7 6 5 7 10 11 11 12 14 16 17
52 47 41 39 37 34 33 31 32 37 28 9 7 12 9 5 2 5 10 12 12 13 10 6 4 2 7 8 7 9 7 5 7 5 6 6 4 8 11 6 7 12 10 4 2 1 2 3 2 1 1 1 2 1 3 3 4 1 2 4 3 2 2 2 2 2 2 3 2 1 3 4 5 5 1 1 6 8 6 5 5 7 11 14 16 17 18 19
51 39 31 38 40 35 34 32 32 33 17 4 10 11 6 5 2 8 20 17 9 9 7 4 3 0 5 7 6 8 7 6 8 7 5 6 4 6 12 7 4 10 12 6 3 3 2 2 2 1 1 0 1 2 5 4 2 2 2 3 0 1 2 2 2 1 2 3 2 2 1 3 6 5 5 8 9 6 5 5 5 7 13 18 19 20 20 21
45 26 17 37 44 36 36 34 29 22 9 6 10 4 1 4 1 7 22 19 5 3 4 3 4 4 4 4 4 7 6 4 8 7 4 6 5 3 8 9 5 7 8 3 2 3 2 1 3 2 1 2 3 2 4 5 5 3 4 5 3 1 1 1 1 1 1 3 2 3 3 3 3 3 7 12 8 2 3 4 4 8 14 17 19 22 22 22
35 14 13 38 43 37 39 30 19 13 6 7 6 1 0 3 4 8 15 13 5 1 3 4 5 5 5 5 4 5 4 4 7 6 3 6 8 4 7 11 9 9 7 3 3 4 1 1 4 4 3 4 2 1 2 2 1 2 4 6 6 4 3 3 3 1 0 1 2 1 4 5 2 2 5 7 2 0 3 4 4 10 16 18 19 23 24 24
23 4 16 41 42 40 38 18 8 10 6 6 4 2 2 2 6 10 9 8 5 2 3 4 3 3 4 6 6 6 7 5 6 7 4 7 9 4 5 11 15 17 11 4 2 2 2 3 4 3 3 2 1 1 1 2 1 1 2 3 4 4 4 5 6 4 3 1 1 2 3 5 1 1 3 4 2 2 4 5 8 12 16 17 19 23 25 25
15 6 22 42 44 45 32 8 4 8 4 3 4 3 2 1 3 7 7 5 3 2 4 3 3 3 3 4 6 8 9 6 5 8 6 5 5 2 5 14 19 17 10 4 2 3 2 3 4 2 1 1 1 0 0 1 1 2 3 3 3 3 3 2 2 3 4 4 3 2 4 4 1 1 3 5 6 7 8 9 12 14 16 17 19 21 23 24
16 16 25 39 45 45 25 5 8 11 6 6 5 1 1 2 2 6 7 6 4 3 5 3 2 3 2 3 6 9 11 6 4 7 4 2 4 2 9 20 21 14 9 7 9 10 6 3 4 4 2 1 1 1 2 1 3 4 2 2 2 2 4 3 2 2 3 5 6 5 7 5 1 0 2 3 4 7 10 12 13 14 16 17 18 20 22 25
18 15 21 36 45 38 17 6 10 12 9 9 7 7 4 1 2 6 6 5 3 3 5 3 3 4 4 4 4 5 9 5 2 6 3 1 2 1 8 21 22 14 7 6 11 14 8 3 6 7 5 5 6 7 7 5 3 3 1 4 7 8 8 5 3 3 4 5 6 7 9 4 2 1 3 2 2 5 9 11 12 14 16 18 20 22 25 28
12 6 10 23 31 27 14 7 8 8 9 10 7 9 9 4 3 5 5 4 2 3 4 3 5 6 5 7 6 5 10 5 2 4 5 4 2 1 4 16 20 13 4 3 13 14 4 1 7 10 9 10 12 11 7 6 6 6 8 9 10 12 10 5 3 4 5 4 5 9 12 8 3 4 5 5 6 6 5 7 13 16 18 20 22 24 26 28
6 3 6 9 12 14 10 8 8 6 10 13 7 7 11 8 3 4 6 4 4 6 3 3 5 8 8 11 9 7 11 7 2 4 6 5 3 2 1 8 12 10 2 6 15 11 2 4 10 12 15 14 11 8 7 9 10 12 13 12 11 12 12 9 8 10 5 4 5 12 14 14 10 9 9 8 6 5 5 10 16 18 19 20 21 22 24 25
3 3 7 9 6 6 8 10 11 8 10 14 6 5 12 11 6 7 6 2 3 7 4 0 6 12 14 14 9 6 8 6 3 4 4 4 3 2 3 2 3 5 1 4 10 6 1 7 10 11 16 13 3 3 5 9 9 9 11 12 13 14 15 14 16 13 8 7 12 16 17 18 13 11 11 9 9 12 13 15 17 17 18 20 20 21 22 24
4 4 6 9 4 2 6 10 11 8 9 11 6 5 12 14 11 7 3 2 3 4 4 5 8 12 14 14 10 7 8 8 8 7 4 5 5 3 3 2 2 3 2 3 4 2 2 5 4 6 12 11 3 4 4 6 6 5 7 10 13 14 15 16 16 14 12 12 15 17 18 17 11 10 12 13 15 16 13 11 13 16 19 21 21 22 23 25
3 3 5 6 4 3 8 11 11 8 8 10 8 7 10 14 14 7 1 4 7 4 4 8 10 10 10 13 14 10 11 15 13 9 7 6 3 2 3 3 3 3 3 3 2 2 3 3 2 4 6 9 4 4 3 3 5 4 4 7 10 12 12 13 14 14 12 13 17 18 16 14 9 9 10 13 14 10 7 9 14 18 21 22 23 24 25 27
6 5 6 6 3 3 7 8 9 8 7 9 10 9 11 13 14 10 3 3 5 4 6 8 8 7 4 8 15 14 15 18 13 13 20 16 13 13 8 6 9 8 5 5 4 3 4 2 2 4 5 7 5 7 5 4 2 2 3 7 12 12 12 13 14 15 13 14 18 16 13 12 7 6 9 11 12 9 9 13 16 18 21 24 26 27 28 30
8 7 7 7 3 2 5 5 7 7 7 10 10 9 10 9 8 9 6 4 3 3 6 8 9 8 4 8 15 16 17 15 8 16 28 22 17 19 12 10 18 15 8 7 5 3 5 4 3 4 6 5 3 6 8 6 3 2 5 12 16 16 16 15 13 15 15 15 14 12 12 10 2 7 7 7 8 10 13 18 21 22 23 25 28 29 30 32
Wind_Direction
214 208 204 203 202 203 205 209 207 205 205 206 208 209 211 212 211 212 213 212 213 216 217 216 217 219 222 225 219 208 225 233 205 208 225 214 190 205 217 197 230 264 274 274 243 227 218 218 215 210 202 193 203 198 191 190 183 182 192 202 182 172 181 175 171 172 117 141 161 175 182 178 162 173 177 178 184 188 195 198 204 200 201 195 184 187 186 184
213 209 204 202 202 203 204 208 210 208 206 206 208 210 212 212 212 213 213 213 214 215 217 216 218 218 218 220 211 209 236 238 217 214 211 198 192 199 210 216 241 239 256 265 245 229 222 221 208 204 195 190 207 193 187 181 175 176 191 203 194 164 131 163 161 157 145 144 154 175 185 184 171 170 171 176 179 184 195 202 210 208 202 195 185 189 184 186
212 210 205 203 202 202 204 207 210 211 208 206 207 210 212 213 212 213 213 213 214 216 218 219 220 219 218 213 207 210 224 237 240 220 201 187 186 197 218 228 230 221 237 254 247 232 225 226 212 202 191 192 203 186 185 179 178 180 192 204 177 144 98 149 163 153 124 138 148 166 181 185 169 168 175 181 167 186 208 201 203 213 208 200 193 197 187 187
209 209 206 204 202 201 203 205 208 210 210 207 207 210 212 213 213 213 213 213 214 217 219 221 222 222 220 205 203 202 188 230 239 216 201 185 183 197 226 231 223 214 229 244 242 233 222 220 214 201 191 194 194 184 188 183 181 173 190 220 127 148 127 152 173 161 135 148 157 155 167 182 172 174 179 175 166 198 222 214 206 210 208 205 201 203 199 191
207 208 206 205 202 202 203 204 206 208 210 209 208 210 212 212 213 213 213 212 214 217 219 221 221 226 222 201 200 192 172 211 223 216 203 181 187 206 228 230 224 213 220 234 233 228 219 212 207 196 194 198 180 184 197 186 176 159 186 356 113 157 127 151 174 173 165 158 157 152 160 175 171 179 185 186 197 195 214 220 218 218 212 209 206 204 203 199
206 205 205 205 203 202 203 204 207 208 210 210 209 211 213 213 213 213 212 212 213 216 218 219 220 222 214 197 194 180 182 198 184 197 193 192 205 219 227 226 222 218 219 224 223 225 217 206 200 190 194 200 186 190 185 179 183 188 167 28 131 138 107 150 167 173 174 160 157 163 169 170 168 187 196 202 218 187 166 209 215 221 219 216 211 207 207 205
205 204 205 203 197 197 201 203 207 209 209 210 210 211 213 213 212 213 213 212 214 217 216 217 218 214 206 198 191 180 204 221 170 159 183 208 224 219 220 220 216 218 217 215 215 219 211 201 197 190 185 188 200 203 168 169 192 242 146 135 131 106 113 152 167 171 171 170 169 172 171 172 178 192 200 213 224 212 188 166 185 205 209 213 212 210 213 213
203 204 203 195 189 190 195 198 201 205 206 208 210 212 213 213 212 213 213 213 215 217 216 219 218 207 205 202 188 185 214 219 204 175 180 216 233 210 210 213 212 215 212 212 213 213 208 201 196 190 188 208 198 179 164 162 201 263 135 153 127 95 121 147 164 165 166 175 171 170 167 178 190 191 209 224 226 219 215 193 171 170 187 205 210 211 215 217
202 200 198 192 188 189 193 195 196 201 203 204 207 210 213 212 211 212 213 214 215 214 214 217 212 200 202 194 179 194 215 206 210 207 194 238 239 207 204 208 210 211 209 210 211 211 208 204 199 194 198 208 186 169 172 175 210 172 128 142 128 93 113 125 141 155 163 165 161 164 157 172 187 199 239 235 232 222 221 218 210 202 198 204 209 212 215 217
201 198 198 196 193 193 193 192 194 197 199 199 203 208 211 210 209 210 211 212 212 208 207 206 199 194 192 177 173 203 205 198 211 217 217 243 231 206 202 205 208 206 208 207 209 211 207 211 208 200 205 193 175 162 176 196 193 138 123 111 106 98 105 112 127 141 152 155 162 165 138 136 172 196 241 229 229 223 220 224 223 222 225 222 216 215 215 218
200 198 199 199 196 194 191 190 190 189 189 194 200 205 208 207 206 207 207 208 205 198 197 193 190 191 181 171 182 201 193 202 220 223 222 226 225 212 204 203 203 204 207 208 211 212 209 219 210 198 207 185 167 140 164 177 126 134 126 99 79 91 98 96 119 133 139 150 167 157 122 109 146 203 233 199 207 217 219 223 223 223 224 225 224 221 218 218
200 199 198 196 193 191 189 188 185 180 183 193 197 196 197 199 200 201 201 201 196 190 191 190 187 185 177 182 202 205 197 211 221 219 219 220 228 220 204 202 201 204 208 211 216 213 210 216 208 201 201 169 158 137 156 140 130 136 130 103 86 96 101 79 99 146 156 157 163 148 153 198 192 216 222 197 187 188 207 217 220 222 221 222 223 222 221 220
199 198 194 191 189 190 190 187 180 177 186 193 190 184 185 187 189 191 192 191 187 185 188 189 186 180 178 197 214 210 211 215 212 216 216 219 227 216 203 204 202 205 207 208 213 211 209 209 208 207 188 159 144 134 139 125 133 141 133 122 130 161 159 54 12 181 170 155 160 159 231 218 202 216 210 199 198 189 201 210 213 218 220 221 222 223 223 223
198 195 191 190 190 191 192 186 178 179 189 191 184 181 180 179 181 183 183 183 182 183 186 186 182 179 186 210 220 216 219 219 213 217 216 216 220 208 200 204 203 204 205 204 206 205 205 201 200 200 179 156 133 125 124 109 126 137 150 184 150 190 174 75 16 248 176 162 164 181 247 232 176 203 211 209 207 207 215 216 215 217 219 222 223 224 225 225
197 191 188 190 190 190 188 182 177 182 189 187 183 181 177 175 176 177 179 180 180 182 183 182 179 178 194 221 222 217 218 219 215 208 207 208 209 204 196 197 197 196 197 198 196 196 197 193 187 170 134 142 140 133 126 107 92 104 170 173 183 215 167 93 45 342 294 160 175 199 237 244 157 146 210 219 217 220 225 227 225 222 222 225 227 228 228 228
192 188 188 190 188 188 183 179 179 182 184 180 179 179 175 173 174 175 177 178 179 179 178 179 181 178 193 222 211 207 211 213 211 204 202 199 199 199 191 188 189 188 188 188 185 185 186 178 163 141 123 138 152 150 138 141 157 201 232 174 167 202 178 145 107 4 341 144 194 225 265 257 157 116 225 213 208 217 228 234 233 230 230 231 231 231 230 231
188 186 189 189 189 187 181 181 181 180 181 179 177 176 172 171 171 173 175 175 177 175 176 180 180 183 216 223 204 203 206 207 206 206 209 200 192 191 188 181 179 184 181 174 173 171 171 163 151 139 129 142 191 166 158 180 181 163 255 188 167 205 186 176 140 60 327 220 208 217 252 253 206 82 217 186 181 206 237 243 241 237 235 235 234 232 232 235
186 186 188 189 190 184 182 184 179 178 180 175 172 169 166 167 168 169 170 168 165 162 173 182 175 183 229 209 197 198 201 203 201 206 209 197 185 182 183 178 177 177 165 156 162 161 157 151 147 149 151 162 183 188 188 186 172 173 190 185 177 216 221 210 146 116 239 213 212 201 232 250 245 238 223 204 223 260 267 263 261 251 241 236 235 236 240 243
183 184 185 186 185 180 184 183 176 177 172 161 157 154 151 154 155 160 165 162 158 156 173 183 176 181 243 187 190 193 192 194 193 199 200 188 178 173 175 177 175 166 155 153 163 162 149 131 150 183 178 178 189 205 212 168 169 178 179 166 155 174 210 194 92 26 250 202 215 214 227 249 248 247 244 235 249 267 271 272 271 265 256 245 239 239 242 244
180 181 180 180 178 178 184 181 176 173 161 153 150 145 142 146 141 152 165 163 166 168 191 181 180 193 19 173 180 180 175 178 185 187 187 183 174 165 165 165 162 159 158 160 160 162 161 166 193 197 185 182 189 200 119 78 143 152 139 128 142 173 180 128 98 34 301 220 220 223 245 260 258 258 259 258 261 264 263 266 267 266 264 256 249 244 242 243
177 178 178 177 175 177 182 179 177 168 157 155 154 150 155 159 153 165 163 161 175 179 201 179 181 197 225 175 174 170 164 162 177 180 179 179 171 162 160 157 155 162 157 114 116 131 178 204 204 185 164 155 150 123 94 96 120 140 163 164 172 217 163 92 103 73 42 242 218 168 265 261 256 256 258 260 258 255 252 252 256 260 261 258 254 249 246 245
175 177 177 177 175 175 177 175 172 163 157 159 159 156 166 164 163 167 158 143 170 176 179 175 180 200 194 171 170 167 160 149 167 177 175 174 173 168 160 162 167 162 126 116 123 132 197 215 191 127 113 99 85 100 113 96 116 140 165 170 184 194 135 106 121 93 73 251 217 79 277 265 257 251 249 246 243 250 251 249 252 253 254 255 253 250 249 249
174 176 176 177 174 172 174 172 167 162 160 164 162 156 163 164 160 161 153 119 151 167 174 173 180 191 171 165 169 165 158 149 161 174 175 173 176 177 165 164 161 141 152 178 170 168 195 216 128 127 141 131 111 129 124 103 123 149 157 176 183 153 162 194 156 125 49 318 305 307 285 275 260 247 240 233 236 249 253 252 252 251 250 252 251 251 250 249
173 174 176 175 172 170 170 168 166 166 167 165 160 154 161 162 156 156 142 88 132 142 176 178 183 184 169 166 174 171 163 161 166 174 176 174 173 172 166 158 139 145 177 187 178 173 179 352 116 142 159 156 148 157 161 160 173 242 214 188 159 164 185 31 118 140 148 161 331 310 280 272 251 239 237 221 230 251 255 255 254 251 251 252 253 252 250 250
172 173 175 172 171 169 165 165 169 171 169 166 160 158 162 159 156 155 134 86 142 130 170 187 192 191 180 173 177 176 166 165 172 175 177 178 172 161 156 159 159 173 172 154 162 185 143 57 153 149 150 161 155 167 189 191 175 213 234 213 187 173 157 102 127 153 198 202 49 345 266 259 155 230 237 207 281 257 247 252 255 252 251 253 254 253 253 254
172 173 173 171 170 166 161 166 173 172 171 169 162 158 162 159 157 158 137 91 181 156 155 185 190 196 193 184 173 169 166 172 177 177 177 181 178 164 146 152 156 165 152 134 154 204 96 114 156 152 145 149 163 185 193 186 175 194 222 180 140 147 139 134 155 173 232 221 54 340 254 259 296 255 231 12 307 275 240 229 250 252 249 250 252 253 252 250
172 172 171 171 169 166 166 171 173 172 173 172 162 159 162 160 160 162 142 79 206 165 149 171 179 190 191 182 170 167 164 160 166 176 177 178 181 174 162 160 129 132 145 138 171 177 111 138 152 142 139 146 173 191 183 177 177 178 236 153 141 141 146 150 158 175 317 53 129 136 280 274 275 268 61 3 294 275 263 231 236 245 246 246 247 249 246 238
171 172 171 170 170 171 173 174 172 172 173 168 161 160 160 159 162 164 153 159 173 147 150 169 171 180 179 175 176 177 135 149 153 179 179 177 177 176 176 176 150 126 139 175 189 180 102 165 178 156 151 173 182 178 163 171 170 160 263 132 127 121 122 135 142 133 55 293 218 164 69 268 264 247 115 354 282 263 267 246 207 219 242 248 249 251 246 236
170 172 171 170 171 175 177 176 173 170 166 161 159 158 157 157 157 148 162 197 146 121 145 161 163 172 169 167 176 174 140 153 141 166 172 174 176 177 167 162 136 111 85 11 169 76 27 196 192 166 173 175 137 30 5 199 120 149 156 110 92 83 78 92 120 118 111 252 230 141 58 265 265 248 168 152 257 244 253 250 192 192 256 270 268 265 253 238
170 172 172 172 173 175 175 175 174 169 161 160 159 156 155 155 152 146 191 201 146 117 125 156 166 167 161 156 165 159 145 140 100 142 155 162 167 154 119 135 128 115 80 32 72 49 358 123 114 160 184 129 109 69 20 349 126 144 153 112 94 78 65 73 56 81 193 241 235 68 6 279 272 261 203 206 246 242 246 248 191 180 282 314 288 273 254 234
171 173 175 178 176 174 172 170 172 169 164 162 157 155 154 147 143 174 173 153 134 130 130 161 165 161 165 167 159 149 124 64 134 145 149 147 147 132 123 134 123 113 120 86 82 28 31 94 105 81 110 124 117 81 48 45 135 145 158 131 113 92 103 116 87 165 228 231 108 40 333 261 243 240 202 253 284 259 243 225 187 190 338 335 299 273 247 224
172 175 179 182 180 178 174 168 168 167 164 162 156 156 154 127 186 195 163 143 153 168 173 175 186 174 170 165 138 141 125 123 169 163 152 151 154 154 157 174 160 143 171 168 135 73 101 81 360 50 143 180 160 101 80 62 218 205 159 153 149 142 158 198 190 201 235 232 72 11 301 240 244 254 266 274 267 236 228 237 249 262 284 319 312 262 223 205
173 176 179 181 183 181 175 169 166 165 164 162 157 157 152 160 193 190 162 171 169 150 143 139 149 164 160 154 147 153 122 133 177 172 141 148 164 171 244 221 179 172 168 158 146 149 149 346 247 122 190 227 213 143 143 181 202 190 165 165 170 154 165 200 186 237 256 235 63 276 270 250 259 265 249 255 269 239 230 247 256 256 260 282 285 230 199 188
175 176 175 174 177 176 172 169 167 166 165 161 157 154 160 187 194 166 163 195 60 87 109 118 122 141 159 160 162 163 129 102 175 160 140 159 167 182 210 209 204 155 111 147 163 170 177 202 187 156 150 198 211 231 171 135 157 191 165 158 179 174 187 194 179 203 209 108 77 176 226 228 236 9 234 253 291 296 256 252 256 251 256 272 255 212 191 181
176 176 174 170 167 167 168 169 168 169 166 161 158 165 181 193 194 174 172 170 133 119 101 114 130 146 168 112 129 188 193 176 179 162 162 176 179 185 188 188 201 171 138 161 177 167 186 224 99 8 350 163 178 284 337 99 123 226 360 97 203 189 141 128 119 144 121 71 158 184 244 242 257 307 279 254 281 277 257 255 257 253 257 260 232 206 190 179
175 175 174 170 166 163 167 170 170 171 167 161 163 188 195 208 186 174 168 134 137 139 120 117 134 152 169 143 185 218 273 139 172 179 180 186 198 193 189 185 188 194 175 163 155 156 173 130 16 7 43 59 327 291 330 86 145 160 153 176 210 71 102 115 105 61 66 256 197 169 252 263 283 284 274 227 261 263 245 250 254 249 248 240 211 197 186 177
173 175 175 173 168 163 167 172 171 171 170 168 194 196 203 221 151 129 134 115 128 139 132 142 167 168 170 168 187 194 187 143 172 196 181 172 209 195 193 199 186 193 196 162 155 216 165 119 16 349 108 57 340 100 67 22 33 150 172 166 151 69 82 123 150 99 131 245 222 167 243 261 258 260 296 57 248 247 226 229 249 244 238 223 198 189 185 179
171 173 176 175 170 163 165 172 173 171 170 176 219 209 211 207 128 117 135 126 134 150 153 161 165 186 178 172 175 177 177 173 174 191 176 172 217 186 178 195 189 194 202 169 141 211 157 119 68 348 118 53 335 168 128 38 16 7 174 147 141 199 198 172 175 166 186 232 246 216 244 260 230 222 286 251 233 244 227 201 220 222 216 209 192 184 186 181
168 166 173 176 171 164 165 171 172 170 167 196 213 214 206 167 151 155 150 140 140 161 164 158 141 232 186 169 152 158 182 185 165 176 188 184 213 182 176 184 177 190 196 179 157 160 134 143 139 97 317 314 312 229 190 162 79 36 141 145 282 278 208 185 156 164 208 215 237 247 233 235 219 206 223 232 233 241 221 196 201 205 206 204 190 182 187 184
163 156 167 176 171 166 165 165 165 166 173 217 205 216 176 145 108 168 156 145 135 168 160 163 161 154 159 155 136 155 183 182 165 185 215 182 187 208 191 185 156 168 175 145 135 153 124 175 150 117 310 214 192 213 212 181 154 150 166 169 180 129 52 236 145 69 224 203 209 245 251 238 214 180 211 228 234 221 212 218 213 206 207 202 189 185 191 188
157 148 164 173 171 165 160 155 159 172 201 225 213 21 102 147 122 168 167 150 131 84 123 141 155 146 139 151 159 159 159 159 177 196 222 194 200 226 206 189 159 143 144 116 156 167 154 170 144 135 178 198 193 341 307 262 172 167 183 181 176 154 133 185 196 134 44 231 191 231 272 259 198 166 214 229 245 177 228 242 234 217 211 205 193 189 192 191
158 141 167 171 170 164 157 150 169 188 204 214 197 75 126 144 137 165 176 155 131 88 103 121 133 135 142 158 158 152 156 164 183 194 210 215 215 220 202 185 161 154 156 147 158 151 82 103 117 124 184 214 328 2 287 285 317 319 254 205 174 169 172 192 207 181 134 128 86 89 280 273 133 134 232 241 259 256 241 233 236 229 215 209 203 194 192 191
158 125 161 170 169 164 160 149 175 189 223 173 137 76 94 66 125 155 168 176 161 133 142 141 145 153 157 161 152 158 169 171 188 200 205 207 211 212 178 169 158 157 161 144 143 156 113 110 119 102 71 14 333 311 108 10 292 241 241 205 178 197 189 174 194 156 146 171 165 158 254 264 100 118 246 253 253 258 255 235 229 230 220 214 211 201 194 190
139 127 156 169 169 165 164 163 177 191 205 149 143 186 115 47 148 161 174 192 184 153 151 143 162 162 133 144 151 167 178 179 205 214 210 176 186 174 168 169 164 165 178 181 176 175 175 148 126 121 111 127 193 208 199 211 212 223 226 154 168 142 98 88 100 136 196 200 176 197 246 248 118 113 255 252 244 250 251 241 232 230 223 216 212 206 199 193
130 129 158 170 170 171 177 198 188 190 175 150 177 204 181 68 207 194 192 180 159 159 155 142 151 128 110 134 120 152 184 190 194 196 197 185 179 135 170 177 177 179 193 194 171 167 176 175 148 159 172 173 189 205 202 191 179 198 171 158 186 180 160 155 141 156 214 198 167 207 239 234 89 273 249 225 229 242 240 236 232 225 219 214 213 210 204 199
136 134 156 169 178 188 205 213 193 189 169 162 186 198 188 189 194 202 201 180 173 169 130 110 143 120 117 155 139 161 195 199 54 170 187 179 159 32 183 185 187 190 190 168 165 157 148 205 177 189 200 199 208 209 181 132 142 187 196 182 187 191 181 159 123 186 202 162 171 222 240 244 205 188 217 214 211 227 228 222 223 221 215 212 213 213 211 209
140 154 152 162 183 200 213 210 197 191 175 172 175 183 189 189 152 171 198 202 199 178 117 46 164 163 165 167 156 176 191 183 118 170 177 169 146 37 135 182 193 195 168 161 169 154 98 207 194 203 213 216 220 206 160 150 173 195 196 182 180 185 180 178 201 212 175 129 222 232 235 246 231 185 199 214 204 217 232 223 222 219 213 209 209 213 214 211
103 141 160 160 166 195 206 199 192 185 169 171 168 162 183 191 181 177 189 206 208 190 175 353 192 184 176 168 160 163 171 176 199 188 156 143 145 102 87 105 192 196 156 155 170 151 140 207 200 204 216 222 198 126 168 179 186 200 194 181 177 177 178 190 210 212 172 177 234 233 224 238 232 192 197 210 200 211 221 221 221 218 212 208 205 207 211 209
90 93 148 159 152 187 176 160 161 166 165 173 180 174 183 193 193 185 158 132 195 222 211 195 196 192 180 172 170 161 160 180 200 198 164 139 148 140 121 116 160 184 154 131 165 174 188 206 191 184 218 228 158 120 194 187 172 195 192 180 176 177 184 197 209 211 197 208 239 240 235 244 235 193 200 212 210 215 220 221 222 218 212 209 205 205 210 210
137 111 132 140 92 105 147 140 149 168 174 180 192 190 188 195 195 191 117 170 185 197 205 199 191 182 176 179 185 187 186 192 197 187 153 128 135 171 167 170 158 147 162 152 146 197 198 204 124 131 218 234 183 150 200 177 172 182 162 164 170 176 193 210 217 216 211 224 242 245 249 260 246 192 190 205 206 203 206 217 224 222 216 212 210 210 211 210
166 146 139 144 106 113 147 145 157 173 179 190 196 189 190 199 194 183 189 231 208 182 194 196 168 149 164 192 198 203 199 197 198 174 164 167 180 183 184 183 161 149 170 181 161 167 191 199 96 121 214 230 192 170 158 104 100 123 133 171 178 181 196 208 214 212 205 218 234 240 248 257 246 165 169 195 197 188 201 218 227 230 224 219 218 219 217 212
154 151 150 152 130 139 157 150 163 178 189 197 197 184 185 192 182 176 192 221 229 223 210 186 152 144 172 200 206 212 201 198 205 180 177 182 187 182 179 173 167 163 164 173 174 170 171 173 151 161 204 228 196 156 142 112 100 203 207 192 185 193 203 204 213 216 209 212 220 224 232 237 170 123 161 193 192 196 212 222 230 236 233 227 225 226 223 216